FW2814 Weather Reports


time (UTC)temp
C
wind
direction
speed
KPH
gust
KPH
rain 1hr
cm
rain 24hr
cm
rain mn
cm
humidity
%
barometer
mb
20260902140122 27 203 0.0 0.0 0.00 0.00 0.00 91 992.4
20260902135143 26 203 0.0 0.0 0.00 0.00 0.00 91 992.4
20260902134122 26 203 0.0 0.0 0.00 0.00 0.00 93 992.2
20260902133143 25 203 0.0 0.0 0.00 0.00 0.00 93 992.2
20260902132124 25 203 0.0 0.0 0.00 0.00 0.00 93 992.2
20260902131124 25 203 0.0 0.0 0.00 0.00 0.00 94 992.2
20260902130123 24 203 0.0 0.0 0.00 0.00 0.00 94 992.2
20260902125122 23 158 0.0 0.0 0.00 0.00 0.00 94 992.2
20260902124122 23 248 0.0 0.0 0.00 0.00 0.00 94 992.2
20260902123122 23 270 0.0 0.0 0.00 0.00 0.00 94 992.1
20260902122122 23 248 0.0 0.0 0.00 0.00 0.00 94 992.0
20260902121122 23 270 0.0 0.0 0.00 0.00 0.00 94 991.9
20260902120124 23 248 0.0 0.0 0.00 0.00 0.00 94 991.9
20260902115124 23 248 0.0 0.0 0.00 0.00 0.00 94 991.7
20260902114124 23 270 0.0 0.0 0.00 0.00 0.00 93 991.6
20260902113122 23 248 0.0 0.0 0.00 0.00 0.00 93 991.5
20260902112122 23 270 0.0 0.0 0.00 0.00 0.00 93 991.4
20260902111122 23 248 0.0 0.0 0.00 0.00 0.00 92 991.2
20260902110122 23 248 0.0 0.0 0.00 0.00 0.00 92 991.2
20260902105122 23 248 0.0 0.0 0.00 0.00 0.00 92 991.2
20260902104122 23 248 0.0 0.0 0.00 0.00 0.00 92 991.2
20260902103124 24 248 0.0 0.0 0.00 0.00 0.00 92 991.0
20260902102124 24 248 0.0 0.0 0.00 0.00 0.00 92 991.0
20260902101143 24 248 0.0 0.0 0.00 0.00 0.00 92 990.8
20260902100143 24 248 0.0 0.0 0.00 0.00 0.00 92 990.8
20260902095122 24 248 0.0 0.0 0.00 0.00 0.00 92 990.7
20260902094122 24 248 0.0 0.0 0.00 0.00 0.00 92 990.6
20260902093122 24 248 0.0 0.0 0.00 0.00 0.00 92 990.6
20260902092124 24 248 0.0 0.0 0.00 0.00 0.00 92 990.5
20260902091124 24 248 0.0 0.0 0.00 0.00 0.00 93 990.4
20260902090122 24 248 0.0 0.0 0.00 0.00 0.00 93 990.2
20260902085122 24 248 0.0 0.0 0.00 0.00 0.00 93 990.2
20260902084122 24 248 0.0 0.0 0.00 0.00 0.00 94 990.2
20260902083122 24 248 0.0 0.0 0.00 0.00 0.00 94 990.2
20260902082122 24 248 0.0 0.0 0.00 0.00 0.00 94 990.1
20260902081122 24 248 0.0 0.0 0.00 0.00 0.00 94 990.0
20260902080124 24 248 0.0 0.0 0.00 0.00 0.00 94 990.0
20260902075145 24 248 0.0 0.0 0.00 0.00 0.00 93 990.0
20260902074124 24 248 0.0 0.0 0.00 0.00 0.00 93 990.1
20260902073122 24 248 0.0 0.0 0.00 0.00 0.00 93 990.1
20260902072122 24 270 0.0 0.0 0.00 0.00 0.00 93 990.2
20260902071122 24 270 0.0 0.0 0.00 0.00 0.00 92 990.1
20260902070122 24 270 0.0 0.0 0.00 0.00 0.00 92 990.1
20260902065122 24 270 0.0 0.0 0.00 0.00 0.00 91 990.1
20260902064124 24 270 0.0 0.0 0.00 0.00 0.00 92 990.2
20260902063125 24 270 0.0 0.0 0.00 0.00 0.00 92 990.2
20260902062125 24 270 0.0 0.0 0.00 0.00 0.00 91 990.2
20260902061122 24 270 0.0 0.0 0.00 0.00 0.00 92 990.1
20260902060122 25 270 0.0 0.0 0.00 0.00 0.00 92 990.1
20260902055122 25 270 0.0 0.0 0.00 0.00 0.00 92 990.2
20260902054122 25 270 0.0 0.0 0.00 0.00 0.00 91 990.2
20260902053122 25 248 0.0 0.0 0.00 0.00 0.00 91 990.2
20260902052122 25 248 0.0 0.0 0.00 0.00 0.00 91 990.2
20260902051144 25 158 0.0 0.0 0.00 0.00 0.00 90 990.2
20260902050122 25 158 0.0 0.0 0.00 0.00 0.00 90 990.2
20260902045122 25 158 0.0 0.0 0.00 0.00 0.00 90 990.2
20260902044122 25 180 0.0 0.0 0.00 0.00 0.00 88 990.2
20260902043122 26 180 0.0 0.0 0.00 0.00 0.00 87 990.2
20260902042122 26 158 0.0 0.0 0.00 0.00 0.00 87 990.4
20260902041122 26 203 0.0 0.0 0.00 0.00 0.00 86 990.4
20260902040122 26 248 0.0 0.0 0.00 0.00 0.00 86 990.4
20260902035147 26 270 0.0 0.0 0.00 0.00 0.00 86 990.2
20260902034143 26 270 0.0 0.0 0.00 0.00 0.00 86 990.2
20260902033122 26 248 0.0 0.0 0.00 0.00 0.00 86 990.4
20260902032122 26 270 0.0 0.0 0.00 0.00 0.00 86 990.5
20260902031122 26 270 0.0 0.0 0.00 0.00 0.00 86 990.6
20260902030122 26 158 0.0 0.0 0.00 0.00 0.00 86 990.6
20260902025122 26 270 0.0 0.0 0.00 0.00 0.00 87 990.6
20260902024122 26 270 0.0 0.0 0.00 0.00 0.00 86 990.7
20260902023122 26 270 0.0 0.0 0.00 0.00 0.00 85 990.5
20260902022122 26 270 0.0 0.0 0.00 0.00 0.00 85 990.5
20260902021122 26 270 0.0 0.0 0.00 0.00 0.00 85 990.4
20260902020122 26 270 0.0 0.0 0.00 0.00 0.00 84 990.4
20260902015122 26 270 0.0 0.0 0.00 0.00 0.00 84 990.2
20260902014143 27 270 0.0 0.0 0.00 0.00 0.00 84 990.2
20260902013122 27 270 0.0 0.0 0.00 0.00 0.00 82 990.1
20260902012122 27 270 0.0 0.0 0.00 0.00 0.00 82 990.1
20260902011122 27 270 0.0 0.0 0.00 0.00 0.00 82 989.9
20260902010122 28 270 0.0 0.0 0.00 0.00 0.00 81 989.9
20260902005122 28 270 0.0 0.0 0.00 0.00 0.00 82 989.9
20260902004122 28 270 0.0 0.0 0.00 0.00 0.00 82 990.0
20260902003122 28 270 0.0 0.0 0.00 0.00 0.00 82 989.9
20260902002122 29 270 0.0 0.0 0.00 0.00 0.00 81 989.9
20260902001143 29 270 0.0 0.0 0.00 0.00 0.00 79 989.9
20260902000126 30 270 0.0 0.0 0.00 0.00 0.00 78 989.9
20260901235123 30 270 0.0 0.0 0.00 0.00 0.00 76 989.9
20260901234124 30 270 0.0 0.0 0.00 0.00 0.00 75 990.0
20260901233122 31 270 0.0 0.0 0.00 0.00 0.00 75 990.0
20260901232122 31 248 0.0 0.0 0.00 0.00 0.00 73 990.1
20260901231122 32 247 0.0 1.6 0.00 0.00 0.00 72 989.9
20260901230122 32 248 0.0 0.0 0.00 0.00 0.00 71 989.9
20260901225122 32 270 0.0 0.0 0.00 0.00 0.00 71 990.0
20260901224122 33 270 0.0 0.0 0.00 0.00 0.00 70 990.0
20260901223122 33 270 0.0 0.0 0.00 0.00 0.00 70 990.0
20260901222122 33 225 0.0 0.0 0.00 0.00 0.00 68 990.1
20260901221122 34 203 0.0 0.0 0.00 0.00 0.00 63 990.0
20260901220122 34 248 0.0 0.0 0.00 0.00 0.00 62 990.0
20260901215122 35 203 0.0 0.0 0.00 0.00 0.00 63 990.0
20260901214122 35 180 0.0 0.0 0.00 0.00 0.00 60 990.0
20260901213122 35 203 0.0 0.0 0.00 0.00 0.00 60 990.0
20260901212122 35 248 0.0 0.0 0.00 0.00 0.00 59 990.1
20260901211125 36 180 0.0 0.0 0.00 0.00 0.00 57 990.2
20260901210125 37 158 0.0 0.0 0.00 0.00 0.00 56 990.2
20260901205122 37 270 0.0 0.0 0.00 0.00 0.00 53 990.2
20260901204122 36 135 0.0 0.0 0.00 0.00 0.00 57 990.4
20260901203143 36 90 0.0 0.0 0.00 0.00 0.00 60 990.5
20260901202122 36 113 0.0 0.0 0.00 0.00 0.00 58 990.5
20260901201143 36 270 0.0 0.0 0.00 0.00 0.00 55 990.6
20260901200125 36 180 0.0 0.0 0.00 0.00 0.00 58 990.6
20260901195125 36 225 0.0 0.0 0.00 0.00 0.00 57 990.7
20260901194125 36 69 0.0 3.2 0.00 0.00 0.00 56 990.8
20260901193122 35 158 0.0 0.0 0.00 0.00 0.00 58 991.0
20260901192143 36 160 0.0 3.2 0.00 0.00 0.00 58 991.1
20260901191122 36 90 1.6 4.8 0.00 0.00 0.00 57 991.2
20260901190122 37 12 1.6 4.8 0.00 0.00 0.00 55 991.2
20260901185122 35 145 0.0 3.2 0.00 0.00 0.00 61 991.2
20260901184122 35 165 1.6 4.8 0.00 0.00 0.00 58 991.4
20260901183122 35 204 1.6 3.2 0.00 0.00 0.00 60 991.6
20260901182122 35 167 1.6 4.8 0.00 0.00 0.00 61 991.6
20260901181122 35 149 1.6 4.8 0.00 0.00 0.00 63 991.8
20260901180122 34 148 1.6 4.8 0.00 0.00 0.00 64 991.8
20260901175122 35 209 0.0 3.2 0.00 0.00 0.00 63 991.9
20260901174122 34 175 1.6 4.8 0.00 0.00 0.00 65 992.1
20260901173122 34 91 1.6 4.8 0.00 0.00 0.00 64 992.2
20260901172122 33 111 0.0 3.2 0.00 0.00 0.00 67 992.4
20260901171122 34 108 0.0 4.8 0.00 0.00 0.00 68 992.6
20260901170143 34 91 0.0 3.2 0.00 0.00 0.00 68 992.6
20260901165122 32 158 3.2 6.4 0.00 0.00 0.00 72 992.6
20260901164122 32 150 1.6 3.2 0.00 0.00 0.00 73 992.8
20260901163122 32 158 0.0 3.2 0.00 0.00 0.00 73 992.8
20260901162122 32 88 1.6 4.8 0.00 0.00 0.00 72 992.8
20260901161122 32 158 0.0 3.2 0.00 0.00 0.00 73 992.9
20260901160143 31 127 0.0 3.2 0.00 0.00 0.00 75 992.9
20260901155122 31 131 1.6 4.8 0.00 0.00 0.00 74 993.0
20260901154124 31 80 3.2 6.4 0.00 0.00 0.00 75 993.0
20260901153122 31 126 0.0 4.8 0.00 0.00 0.00 75 992.9
20260901152122 31 167 0.0 3.2 0.00 0.00 0.00 76 992.9
20260901151122 30 202 0.0 3.2 0.00 0.00 0.00 79 992.9
20260901150122 30 45 0.0 1.6 0.00 0.00 0.00 80 992.9
20260901145122 29 89 0.0 4.8 0.00 0.00 0.00 81 992.9
20260901144143 28 82 0.0 3.2 0.00 0.00 0.00 84 992.8
20260901143122 28 113 0.0 0.0 0.00 0.00 0.00 87 992.9
20260901142122 28 135 0.0 0.0 0.00 0.00 0.00 88 992.9
20260901141143 27 158 0.0 0.0 0.00 0.00 0.00 90 992.9